Location: Celina Division
(33.3022°N, 96.7580°W)
Time: 00:21:48
(UTC+00:00)

PCSat - Visible Passes

Search period start: 31 March 2023 00:00
Search period end: 10 April 2023 00:00
Orbit: 784 x 794 km, 67.1° (Epoch: 30 March)

Date Brightness Start Highest point End Pass type
(mag) Time Alt. Az. Time Alt. Az. Time Alt. Az.
07 Apr 12.5 05:01:22 10° NNW 05:01:25 10° NNW 05:01:25 10° NNW visible
08 Apr 12.2 04:30:21 10° N 04:30:59 13° N 04:30:59 13° N visible
09 Apr 12.0 03:59:28 10° N 04:00:34 14° NNE 04:00:34 14° NNE visible
